Flag for Germany Weather past 2 weeks in Castrop-Rauxel, North Rhine-Westphalia, Germany

Now
39 °F

Passing clouds.


Feels Like: 34 °F
Forecast: 37 / 42 °F
Wind: 7 mph from West

Location: Dortmund / Wickede

Current Time: Jan 27, 2015 at 10:48:52 PM

Latest Report: Jan 27, 2015 at 10:20 PM


Visibility: 6 mi

Pressure: 30.15 "Hg

Humidity: 87%

Dew point: 36 °F

Location of Castrop-RauxelLocation

Historic Weather in Castrop-Rauxel — Graph

°F

Castrop-Rauxel temperature yesterday

Maximum temperature yesterday: 41 °F (at 5:50 PM)
Minimum temperature yesterday: 36 °F (at 5:20 AM)
Average temperature yesterday: 38 °F

Past Weeks' High & Low Weather Summary

 TemperatureHumidityPressure
High52 °F (Jan 13, 12:20 PM)93% (Jan 17, 7:20 AM)30.39 "Hg (Jan 17, 7:20 AM)
Low27 °F (Jan 21, 8:20 AM)58% (Jan 13, 12:20 PM)29.42 "Hg (Jan 15, 4:20 PM)
Average36 °F80%29.94 "Hg
* Reported Jan 12 9:20 PM — Jan 27 9:20 PM, Castrop-Rauxel, Weather by CustomWeather, © 2014

Note: Actual official high and low records may vary slightly from our data, if they occured in-between our weather recording intervals... More about our weather records

Advertising

Castrop-Rauxel weather history for previous 24 hours

 ConditionsComfort  
Time TempWeatherWind HumidityBarometerVisibility
9:20 PM
Jan 27
39 °FPassing clouds.6 mph87%30.15 "HgN/A
8:50 PM39 °FPartly cloudy.3 mph87%30.15 "HgN/A
8:20 PM39 °FPartly cloudy.6 mph87%30.15 "HgN/A
7:50 PM39 °FPassing clouds.6 mph87%30.15 "HgN/A
7:20 PM39 °FPassing clouds.6 mph87%30.15 "HgN/A
6:50 PM39 °FPartly cloudy.6 mph87%30.15 "HgN/A
6:20 PM39 °FPassing clouds.7 mph87%30.15 "HgN/A
5:50 PM39 °FPassing clouds.7 mph87%30.15 "HgN/A
5:20 PM39 °FPassing clouds.7 mph87%30.15 "HgN/A
4:50 PM39 °FScattered clouds.8 mph87%30.15 "HgN/A
4:20 PM39 °FScattered showers. Partly sunny.8 mph87%30.15 "HgN/A
3:50 PM41 °FScattered showers. Partly sunny.6 mph81%30.15 "HgN/A
3:20 PM41 °FDrizzle. Partly sunny.7 mph81%30.15 "HgN/A
2:50 PM41 °FPartly sunny.8 mph81%30.12 "HgN/A
2:20 PM41 °FPartly sunny.8 mph81%30.12 "HgN/A
1:50 PM39 °FPartly sunny.8 mph87%30.12 "HgN/A
1:20 PM39 °FPartly sunny.9 mph87%30.15 "HgN/A
12:50 PM39 °FLight rain. Partly sunny.8 mph87%30.15 "HgN/A
12:20 PM39 °FPartly sunny.8 mph81%30.15 "HgN/A
11:50 AM39 °FDrizzle. Partly sunny.7 mph81%30.15 "HgN/A
11:20 AM37 °FPartly sunny.7 mph87%30.15 "HgN/A
10:50 AM37 °FPartly sunny.8 mph87%30.15 "HgN/A
10:20 AM37 °FPartly sunny.8 mph87%30.15 "HgN/A
9:50 AM37 °FLight rain. Partly sunny.8 mph87%30.15 "HgN/A
9:20 AM37 °FLight rain. Partly sunny.9 mph87%30.15 "HgN/A
8:50 AM37 °FLight rain. Broken clouds.8 mph87%30.15 "HgN/A
8:20 AM36 °FLight rain. Partly sunny.8 mph93%30.12 "HgN/A
7:50 AM36 °FLight rain. Partly cloudy.9 mph87%30.12 "HgN/A
7:20 AM36 °FLight rain. Partly cloudy.9 mph87%30.12 "HgN/A
6:50 AM36 °FPartly cloudy.10 mph87%30.12 "HgN/A
6:20 AM36 °FPartly cloudy.9 mph87%30.12 "HgN/A
5:50 AM36 °FPassing clouds.7 mph87%30.12 "HgN/A
5:20 AM36 °FPassing clouds.10 mph87%30.12 "HgN/A
10:50 PM
Jan 26
39 °FPassing clouds.8 mph87%30.07 "HgN/A
10:20 PM39 °FPassing clouds.9 mph87%30.07 "HgN/A
Weather by CustomWeather, © 2014

See weather overviewHow to use our weather pages